COSMOS 2251 DEB, 33972

Orbit data source: Space-Track

COSMOS 2251 DEB, 33972 is space debris in LEO originally from a launch on Wed, 16 Jun 1993 UTC launched from the Plesetsk Missile And Space Complex (PKMTR). The debris from Iridium 33, an American commercial communications satellite, has been tracked extensively since its accidental collision with the defunct Russian satellite Cosmos 2251 in 2009. This event, occurring at high speed in low Earth orbit (LEO), generated thousands of pieces of space debris, significantly increasing the risk of further collisions. The Iridium 33 debris cloud has impacted space traffic management and orbital debris mitigation strategies, making it a subject of ongoing study in space situational awareness.

Loading next visibility...
Identifier
33972, 1993-036FF
Orbit
LEO
Country
Flag of CISCIS
Related business
Manufacturer
Unknown
Mission
Spacecraft
Bus & Motor
Unknown
Mass
Unknown
Launch date (UTC)
1993-06-16 (33 years ago)
Launch vehicle
Unknown
Launch site
Plesetsk Missile And Space Complex (PKMTR)
Object type
Payload
Rocket body
Debris
Shape & HBR
Unknown shape, 0.1 m
Radar Cross Section
Small (<0.1 m²)

Expand to show TLE details & history
Last TLE update: 1 day ago

TLE from 1 day ago
0 COSMOS 2251 DEB
1 33972U 93036FF  25349.80633551  .00002637  00000-0  83642-3 0  9993
2 33972  73.9940 185.0166 0123433 352.1034  21.7399 14.36246564871186
Epoch: 2025-12-15T19:21Z
TLE epoch observation values (Epoch: 2025-12-15T19:21:07.388Z)
Latitude
13.78069°
Longitude
174.04887°
Altitude
690.968 km
Speed
7.555 km/s
True Right ascension
12h 36m 07s
True Declination
13° 42' 02"
Sunlit
Object was in daylight at epoch
Visualization orbit readout
Latitude
Unknown
Longitude
Unknown
Altitude
Unknown
Speed
Unknown
Apparent Right ascension
Unknown
Apparent Declination
Unknown
Sunlit
N/A
Visualization observer readout
Local Sidereal Time
21:42:40
Azimuth
Unknown
Elevation
Unknown
Doppler factor
Unknown
Orbital elements
Apogee altitude
856.767 km
Perigee altitude
680.34 km
Semi-major axis
7,146.691 km
Eccentricity
0.01234
Inclination
73.994°
RAAN
185.0166°
Arg. of periapsis
352.1034°
True anomaly
22.2714°
Mean anomaly
21.7399°
Eccentric anomaly
22.00488°
Mean motion
3.59241 °/min
Orbital period
100.21 mins
BSTAR
0.00083642

Documentation

Showing up to 5 results
|